Regional Weather Roundup
Issued by NWS

Home | Current Version | Previous Version | Text Only | Print | Product List | Glossary On
Versions: 1 2 3 4 5 6 7 8 9 10 11 12 13 14 15 16 17 18 19 20 21 22 23 24 25 26 27 28 29 30 31 32 33 34 35 36 37 38 39 40 41 42 43 44 45 46 47 48 49 50
000
ASUS43 KDTX 250010
RWRMI
MICHIGAN HOURLY REGIONAL WEATHER ROUNDUP
NATIONAL WEATHER SERVICE DETROIT/PONTIAC MI
800 PM EDT THU JUL 24 2014

NOTE: "FAIR" INDICATES FEW OR NO CLOUDS BELOW 12,000 FEET WITH NO
SIGNIFICANT WEATHER AND/OR OBSTRUCTION TO VISIBILITY.

MIZ047>049-052>055-059>063-066>070-074>076-081>083-250100-
SOUTHEAST LOWER MICHIGAN

CITY           SKY/WX    TMP DP  RH WIND       PRES   REMARKS
ADRIAN         PTCLDY    73  48  41 N7        30.06R
6HR MIN TEMP:  71; 6HR MAX TEMP:  77;

ALMA           MOSUNNY   69  51  52 S3        30.08S
6HR MIN TEMP:  69; 6HR MAX TEMP:  74;

ANN ARBOR      CLOUDY    73  47  39 N5        30.05S
BAD AXE        CLEAR     68  48  48 CALM      30.07R
6HR MIN TEMP:  68; 6HR MAX TEMP:  72;

CARO           CLEAR     70  53  54 CALM      30.07R
DETROIT CITY   MOCLDY    72  50  45 SE6       30.04S
6HR MIN TEMP:  71; 6HR MAX TEMP:  79;

DETROIT        PTCLDY    74  48  39 N3        30.05R
6HR MIN TEMP:  72; 6HR MAX TEMP:  77;

FLINT          PTSUNNY   73  47  39 NW8       30.08R
6HR MIN TEMP:  71; 6HR MAX TEMP:  76;

GROSSE ILE     MOCLDY    72  52  49 CALM      30.03S
HILLSDALE      MOSUNNY   70  51  52 NW3       30.09R
6HR MIN TEMP:  69; 6HR MAX TEMP:  74;

HOWELL         MOSUNNY   67  54  62 CALM      30.08R

CITY           SKY/WX    TMP DP  RH WIND       PRES   REMARKS
JACKSON        MOSUNNY   68  53  58 N3        30.08R
6HR MIN TEMP:  68; 6HR MAX TEMP:  75;

LAMBERTVILLE   CLEAR     72  50  46 CALM      30.06R
LANSING        MOSUNNY   70  50  49 NW6       30.09R
6HR MIN TEMP:  70; 6HR MAX TEMP:  74;

LAPEER         FAIR      70  47  44 N3        30.07R
MASON          CLOUDY    70  50  49 CALM      30.08R
MONROE         CLOUDY    72  52  49 S5        30.03S
MT. CLEMENS    PTCLDY    68  51  55 E7        30.04R
6HR MIN TEMP:  68; 6HR MAX TEMP:  74;

PONTIAC        PTCLDY    71  48  43 NW7       30.06R
6HR MIN TEMP:  70; 6HR MAX TEMP:  75;

PORT HOPE        N/A     66  53  63 CALM      30.06R
6HR MIN TEMP:  65; 6HR MAX TEMP:  68;

PORT HURON     CLEAR     64  48  55 N3        30.06R
TRI CITIES     PTSUNNY   73  50  44 SW6       30.07R
6HR MIN TEMP:  71; 6HR MAX TEMP:  76;

TROY           PTCLDY    71  48  43 N6        30.07R
SAGINAW HB     MOSUNNY   70  50  49 CALM      30.07R
$$
MIZ043>046-050>051-056>058-064>065-071>073-077>080-250100-
SOUTHWEST LOWER MICHIGAN

CITY           SKY/WX    TMP DP  RH WIND       PRES   REMARKS
BATTLE CREEK   SUNNY     70  51  51 N5        30.09R
6HR MIN TEMP:  69; 6HR MAX TEMP:  76;

BENTON HARBOR  SUNNY     64  51  62 VRB5      30.09F
6HR MIN TEMP:  64; 6HR MAX TEMP:  69;

BIG RAPIDS     MOSUNNY   70  49  47 NW8       30.06F
6HR MIN TEMP:  70; 6HR MAX TEMP:  76;

COLDWATER      PTSUNNY   74  51  45 W3        30.08R
6HR MIN TEMP:  71; 6HR MAX TEMP:  75;

FREMONT        FAIR      68  46  44 NW6       30.08F
HOLLAND        SUNNY     68  46  45 NW6       30.10S
6HR MIN TEMP:  68; 6HR MAX TEMP:  75;

GRAND RAPIDS   MOSUNNY   72  52  49 W13       30.08R
6HR MIN TEMP:  69; 6HR MAX TEMP:  76;

IONIA          FAIR      72  49  44 W3        30.07S
KALAMAZOO      MOSUNNY   72  53  51 NW12      30.08R
6HR MIN TEMP:  72; 6HR MAX TEMP:  76;

LUDINGTON      SUNNY     69  47  45 CALM      30.07F
MARSHALL       PTSUNNY   70  52  52 CALM      30.07R
MOUNT PLEASANT MOSUNNY   72  50  45 CALM      30.06S
6HR MIN TEMP:  70; 6HR MAX TEMP:  75;

MUSKEGON       MOSUNNY   69  43  38 NW10      30.09F
6HR MIN TEMP:  68; 6HR MAX TEMP:  72;

SOUTH HAVEN    SUNNY     65  52  62 N5        30.09S
$$
MIZ016>042-250100-
NORTHERN LOWER MICHIGAN

CITY           SKY/WX    TMP DP  RH WIND       PRES   REMARKS
ALPENA         SUNNY     66  53  63 E3        30.06R
6HR MIN TEMP:  66; 6HR MAX TEMP:  75;

BEAVER ISLAND  MOSUNNY   63  52  67 SW6       30.04F
6HR MIN TEMP:  63; 6HR MAX TEMP:  70;

BELLAIRE       SUNNY     67  48  50 CALM      30.06F
6HR MIN TEMP:  67; 6HR MAX TEMP:  72;

CADILLAC       MOSUNNY   68  52  56 W8        30.08S
CHARLEVOIX     MOSUNNY   65  49  55 SW3       30.08F
6HR MIN TEMP:  65; 6HR MAX TEMP:  70;

FRANKFORT      SUNNY     66  49  54 W3        30.06F
GAYLORD        SUNNY     65  47  52 VRB5      30.08F
6HR MIN TEMP:  65; 6HR MAX TEMP:  71;

GRAYLING       SUNNY     69  51  52 NW6       30.08S
6HR MIN TEMP:  69; 6HR MAX TEMP:  74;

HARBOR SPRINGS SUNNY     65  51  60 W5        30.06F
HOUGHTON LAKE  SUNNY     70  49  47 W5        30.08R
6HR MIN TEMP:  69; 6HR MAX TEMP:  72;

MANISTEE       SUNNY     66  45  45 CALM      30.08F
OSCODA         SUNNY     68  49  50 S5        30.06R
PELLSTON       SUNNY     65  49  56 W5        30.06S
6HR MIN TEMP:  65; 6HR MAX TEMP:  73;

ROGERS CITY    SUNNY     68  55  62 W3        30.05S
TRAVERSE CITY  MOSUNNY   70  47  43 NE5       30.05F
6HR MIN TEMP:  70; 6HR MAX TEMP:  73;

$$
MIZ007>008-015-250100-
EASTERN UPPER MICHIGAN

CITY           SKY/WX    TMP DP  RH WIND       PRES   REMARKS
KINROSS        SUNNY     64  54  68 NW3       30.04S
6HR MIN TEMP:  64; 6HR MAX TEMP:  72;

MACKINAC ISLAN SUNNY     63  54  71 SW6       30.05S
6HR MIN TEMP:  63; 6HR MAX TEMP:  67;

NEWBERRY       MOSUNNY   66  50  55 SW8       30.02F
S. S. MARIE    SUNNY     64  48  56 W6        30.03S
6HR MIN TEMP:  64; 6HR MAX TEMP:  71;

MUNISING         N/A     67  44  43 CALM      29.99F
6HR MIN TEMP:  67; 6HR MAX TEMP:  71;

$$
MIZ004>006-011>014-085-250100-
CENTRAL UPPER MICHIGAN

CITY           SKY/WX    TMP DP  RH WIND       PRES   REMARKS
MANISTIQUE     SUNNY     62  52  71 SW9       30.03F
6HR MIN TEMP:  62; 6HR MAX TEMP:  70;

ESCANABA       SUNNY     66  52  59 S12       30.02F
6HR MIN TEMP:  66; 6HR MAX TEMP:  72;

MENOMINEE      SUNNY     70  48  46 S9        30.01F
6HR MIN TEMP:  70; 6HR MAX TEMP:  75;

SAWYER-GWINN   MOSUNNY   70  50  49 NE6       30.01F
$$
MIZ001>003-009>011-084-250100-
WESTERN UPPER MICHIGAN

CITY           SKY/WX    TMP DP  RH WIND       PRES   REMARKS
IRON MOUNTAIN  SUNNY     75  50  41 SW5       30.00F
6HR MIN TEMP:  73; 6HR MAX TEMP:  78;

HOUGHTON       SUNNY     71  48  43 SW7       29.98F
6HR MIN TEMP:  70; 6HR MAX TEMP:  74;

COPPER HARBOR    N/A     69  51  52 S6        29.98S
6HR MIN TEMP:  65; 6HR MAX TEMP:  70;

$$

ABBREVIATIONS USED IN REMARKS
   TC - TEMPERATURE IN CELSIUS
  WCI - WIND CHILL INDEX
   HX - HEAT INDEX
  VSB - VISIBILITY



USA.gov is the U.S. government's official web portal to all federal, state and local government web resources and services.